Weather History for KAPY - November, 2012

Change the Weather History Date:

Tuesday, November 20, 2012

  Actual Average (KLRD) Record (KLRD)
Temperature  
Mean Temperature 70 °F 64 °F  
Max Temperature 81 °F 75 °F 93 °F (2011)
Min Temperature 59 °F 53 °F 28 °F (1969)
Degree Days  
Heating Degree Days 0 4  
Month to date heating degree days 49  
Since 1 July heating degree days 61  
Cooling Degree Days 5 3  
Month to date cooling degree days 101  
Year to date cooling degree days 4230  
Growing Degree Days 20 (Base 50)    
Moisture  
Dew Point 58 °F    
Average Humidity 60    
Maximum Humidity 90    
Minimum Humidity 43    
Precipitation  
Precipitation 0.00 in 0.03 in 1.70 in (1985)
Month to date precipitation 0.85  
Year to date precipitation 18.98  
Sea Level Pressure  
Sea Level Pressure 30.16 in    
Wind  
Wind Speed 3 mph (SE)    
Max Wind Speed 9 mph    
Max Gust Speed -    
Visibility 10 miles    
Events      
T = Trace of Precipitation, MM = Missing Value Source: NWS Daily Summary

Daily Weather History Graph

Daily Weather History Graph

Search for Another Location

Airport or City:

Trip Planner

Search our weather history database for the weather conditions in past years. The results will help you decide how hot, cold, wet, or windy it might be!

Date:

Astronomy

Nov. 20, 2012 Rise Set
Actual Time 7:01 AM CST 5:44 PM CST
Civil Twilight 6:36 AM CST 6:09 PM CST
Nautical Twilight 6:07 AM CST 6:37 PM CST
Astronomical Twilight 5:40 AM CST 7:05 PM CST
Moon 12:55 PM CST (11/20) No Moon Set
Length of Visible Light 11h 32m
Length of Day
10h 43m
First Quarter, 51% of the Moon is Illuminated
Nov 20
First Quarter
Nov 28
Full
Dec 6
Last Quarter
Dec 13
New
Dec 19
First Quarter

Hourly Weather History & Observations

Time (CST) Temp. Heat Index Dew Point Humidity Pressure Visibility Wind Dir Wind Speed Gust Speed Precip Events Conditions
12:15 AM 65.8 °F - 57.2 °F 74% 30.15 in 10.0 mi East 6.9 mph - N/A   Scattered Clouds
1:15 AM 64.2 °F - 57.0 °F 77% 30.14 in 10.0 mi East 3.5 mph - N/A   Clear
1:35 AM 63.5 °F - 56.8 °F 79% 30.15 in 10.0 mi East 3.5 mph - N/A   Clear
1:55 AM 63.1 °F - 56.8 °F 80% 30.15 in 10.0 mi East 3.5 mph - N/A   Clear
2:15 AM 62.8 °F - 56.8 °F 81% 30.15 in 10.0 mi Calm Calm - N/A   Clear
2:35 AM 62.6 °F - 57.2 °F 82% 30.15 in 10.0 mi Calm Calm - N/A   Clear
6:15 AM 59.9 °F - 56.8 °F 90% 30.15 in 10.0 mi Calm Calm - N/A   Mostly Cloudy
6:35 AM 61.2 °F - 57.6 °F 88% 30.16 in 10.0 mi Calm Calm - N/A   Overcast
7:15 AM 62.1 °F - 57.7 °F 86% 30.17 in 10.0 mi Calm Calm - N/A   Overcast
7:55 AM 64.0 °F - 58.3 °F 82% 30.19 in 10.0 mi Calm Calm - N/A   Overcast
8:15 AM 65.8 °F - 59.0 °F 79% 30.20 in 10.0 mi Calm Calm - N/A   Mostly Cloudy
8:35 AM 67.8 °F - 59.5 °F 75% 30.19 in 10.0 mi Calm Calm - N/A   Mostly Cloudy
8:55 AM 70.2 °F - 59.9 °F 70% 30.20 in 10.0 mi SE 5.8 mph - N/A   Scattered Clouds
9:15 AM 72.3 °F - 60.6 °F 67% 30.20 in 10.0 mi ESE 4.6 mph - N/A   Clear
9:35 AM 73.6 °F - 61.5 °F 66% 30.21 in 10.0 mi Calm Calm - N/A   Clear
9:55 AM 74.3 °F - 61.7 °F 65% 30.21 in 10.0 mi SSE 5.8 mph - N/A   Clear
10:15 AM 75.2 °F - 61.2 °F 62% 30.21 in 10.0 mi SSE 4.6 mph - N/A   Clear
10:55 AM 77.5 °F - 59.7 °F 54% 30.20 in 10.0 mi SSE 6.9 mph - N/A   Clear
11:15 AM 77.4 °F - 60.3 °F 55% 30.20 in 10.0 mi South 5.8 mph - N/A   Clear
11:35 AM 78.6 °F - 60.3 °F 53% 30.18 in 10.0 mi South 3.5 mph - N/A   Clear
12:15 PM 79.7 °F - 59.2 °F 49% 30.17 in 10.0 mi SSE 9.2 mph - N/A   Mostly Cloudy
12:55 PM 79.9 °F - 57.9 °F 47% 30.15 in 10.0 mi Calm Calm - N/A   Mostly Cloudy
1:15 PM 81.7 °F 81.6 °F 57.7 °F 44% 30.14 in 10.0 mi Calm Calm - N/A   Overcast
1:35 PM 81.5 °F 81.6 °F 58.1 °F 45% 30.13 in 10.0 mi SE 4.6 mph - N/A   Mostly Cloudy
2:15 PM 81.5 °F 81.5 °F 57.7 °F 44% 30.11 in 10.0 mi SW 4.6 mph - N/A   Overcast
2:35 PM 81.3 °F 81.3 °F 57.4 °F 44% 30.11 in 10.0 mi SSE 3.5 mph - N/A   Overcast
2:55 PM 80.4 °F 80.7 °F 57.2 °F 45% 30.11 in 10.0 mi Calm Calm - N/A   Overcast
3:15 PM 81.0 °F 81.1 °F 57.6 °F 45% 30.11 in 10.0 mi Calm Calm - N/A   Overcast
3:35 PM 80.8 °F 80.9 °F 57.0 °F 44% 30.10 in 10.0 mi Calm Calm - N/A   Overcast
3:55 PM 80.6 °F 80.6 °F 56.5 °F 43% 30.10 in 10.0 mi Calm Calm - N/A   Overcast
4:15 PM 79.9 °F - 56.8 °F 45% 30.11 in 10.0 mi South 3.5 mph - N/A   Overcast
4:35 PM 79.7 °F - 56.8 °F 45% 30.11 in 10.0 mi Calm Calm - N/A   Overcast
4:55 PM 79.7 °F - 57.0 °F 46% 30.11 in 10.0 mi South 3.5 mph - N/A   Overcast
5:15 PM 79.3 °F - 57.2 °F 47% 30.12 in 10.0 mi Calm Calm - N/A   Overcast
5:35 PM 79.0 °F - 57.2 °F 47% 30.12 in 10.0 mi Calm Calm - N/A   Overcast
5:55 PM 78.1 °F - 57.2 °F 49% 30.12 in 10.0 mi Calm Calm - N/A   Overcast
6:15 PM 77.4 °F - 57.2 °F 50% 30.12 in 10.0 mi Calm Calm - N/A   Overcast
6:35 PM 75.9 °F - 57.2 °F 52% 30.13 in 10.0 mi Calm Calm - N/A   Mostly Cloudy
6:55 PM 74.7 °F - 57.4 °F 55% 30.14 in 10.0 mi Calm Calm - N/A   Overcast
7:15 PM 75.2 °F - 57.4 °F 54% 30.14 in 10.0 mi Calm Calm - N/A   Overcast
7:35 PM 75.2 °F - 57.4 °F 54% 30.15 in 10.0 mi Calm Calm - N/A   Overcast
7:55 PM 73.9 °F - 57.2 °F 56% 30.16 in 10.0 mi Calm Calm - N/A   Overcast
8:15 PM 75.2 °F - 57.2 °F 53% 30.16 in 10.0 mi East 4.6 mph - N/A   Overcast
8:35 PM 74.5 °F - 57.2 °F 55% 30.17 in 10.0 mi Calm Calm - N/A   Overcast
8:55 PM 73.4 °F - 56.8 °F 56% 30.17 in 10.0 mi ESE 6.9 mph - N/A   Scattered Clouds
9:15 PM 72.1 °F - 56.7 °F 58% 30.18 in 10.0 mi ESE 6.9 mph - N/A   Clear
9:35 PM 71.4 °F - 57.2 °F 61% 30.18 in 10.0 mi ESE 6.9 mph - N/A   Clear
9:55 PM 70.7 °F - 57.4 °F 63% 30.18 in 10.0 mi ESE 6.9 mph - N/A   Clear
10:15 PM 70.2 °F - 57.4 °F 64% 30.19 in 10.0 mi ESE 6.9 mph - N/A   Clear
10:35 PM 69.8 °F - 57.6 °F 65% 30.19 in 10.0 mi East 6.9 mph - N/A   Clear
10:55 PM 68.9 °F - 57.4 °F 67% 30.19 in 10.0 mi ESE 5.8 mph - N/A   Clear
11:15 PM 68.4 °F - 57.6 °F 68% 30.19 in 10.0 mi ESE 5.8 mph - N/A   Clear
11:35 PM 68.0 °F - 57.6 °F 69% 30.19 in 10.0 mi SE 4.6 mph - N/A   Scattered Clouds
11:55 PM 68.5 °F - 58.1 °F 69% 30.19 in 10.0 mi SE 5.8 mph - N/A   Mostly Cloudy